Temp
17 17 17 17 16 16 16 16 16 16 16 16 16 16 16 16 15 15 15 15 15 15 15 14 13 13 13 13 13 12 12 12 12 12 12 12 12 11 11 10 11 12
17 17 17 17 17 17 17 17 17 17 16 16 16 16 16 15 15 15 15 15 15 14 15 14 13 13 13 13 12 12 12 12 12 12 11 11 11 10 10 10 11 12
17 17 17 17 17 17 17 17 17 17 17 16 16 16 15 15 15 15 15 15 15 14 14 14 13 13 13 12 12 12 12 12 12 11 11 10 10 10 9 10 11 12
17 17 17 17 17 17 17 17 17 17 17 16 16 15 15 15 15 15 14 14 15 15 14 14 13 13 13 12 12 12 12 12 11 11 10 9 9 9 9 10 11 12
17 17 17 17 17 17 17 17 17 16 16 16 16 15 15 14 14 14 14 14 14 14 14 13 13 13 12 12 12 12 11 11 11 10 9 8 8 9 9 10 12 12
17 17 17 17 17 16 16 16 16 16 16 16 15 15 15 14 14 14 14 13 13 13 13 13 12 12 12 12 12 12 11 11 10 9 8 7 8 8 9 11 12 12
16 16 16 16 16 16 16 16 16 16 16 15 15 15 14 14 14 14 13 13 13 13 13 13 12 12 12 12 12 11 11 10 9 8 7 7 8 8 9 11 11 11
16 16 16 16 16 16 16 16 16 16 15 15 15 14 14 14 14 14 13 13 13 13 13 12 12 12 12 12 12 11 10 9 8 8 7 7 8 9 10 10 11 11
15 15 15 15 15 15 15 15 15 15 15 15 15 14 14 14 14 14 13 13 12 12 12 12 12 12 11 12 11 11 10 9 8 8 7 8 9 10 10 10 10 10
14 14 14 14 14 14 14 14 14 15 14 14 14 14 14 14 13 13 13 13 12 12 12 12 12 11 11 11 11 11 11 9 9 8 8 9 10 10 10 10 10 10
12 12 12 13 13 13 14 14 14 14 14 14 14 14 14 14 13 13 13 12 12 12 12 12 11 11 11 11 11 11 11 10 9 9 9 10 10 11 11 11 10 10
11 11 12 12 13 13 13 13 13 14 14 14 14 14 14 14 13 13 13 12 12 12 12 11 11 11 11 11 11 10 10 9 9 10 10 10 10 10 11 11 10 10
10 10 11 12 12 12 12 13 13 13 13 13 13 13 13 13 13 13 12 12 12 12 12 11 10 10 10 10 11 10 9 9 9 10 9 9 9 10 10 10 10 9
8 9 10 11 11 12 12 12 12 13 13 13 13 13 13 13 13 13 12 11 11 11 11 11 10 10 10 10 10 10 9 9 9 9 9 9 9 9 9 9 9 9
7 7 8 9 10 11 11 11 12 12 12 12 12 12 12 12 12 12 11 11 10 10 10 10 10 10 10 10 10 9 8 8 9 9 9 9 8 8 8 9 9 8
6 6 7 8 8 9 10 10 11 11 11 11 11 11 11 11 11 11 10 10 10 9 9 9 10 10 10 10 10 9 8 8 8 9 9 9 9 8 8 8 8 8
7 7 7 7 7 8 8 9 10 10 10 10 10 10 10 10 10 10 9 9 9 9 9 9 9 10 10 10 9 9 8 8 9 9 9 9 9 9 8 8 8 7
7 7 8 8 8 8 8 8 9 9 9 10 9 9 9 9 9 9 8 8 8 8 8 8 9 10 10 10 9 8 8 8 9 9 9 8 8 9 8 8 8 7
7 8 8 8 8 8 8 8 8 9 9 9 9 9 9 9 8 8 8 8 8 7 7 7 8 9 9 9 8 7 7 8 9 9 9 8 8 8 8 8 8 8
7 8 8 8 8 8 8 8 8 8 8 8 8 8 8 8 8 8 7 7 7 7 7 7 8 9 8 8 7 7 7 8 9 9 9 9 8 8 8 8 8 8
7 7 7 7 7 7 7 7 7 7 7 7 7 7 7 7 7 7 7 7 6 6 7 7 8 8 7 7 6 6 6 7 8 8 8 8 8 8 8 8 8 8
7 7 7 7 6 6 7 7 7 7 6 6 7 6 6 6 6 6 6 6 6 6 6 7 7 7 6 6 5 6 6 6 7 7 7 7 7 7 8 8 8 8
7 7 6 6 6 6 6 6 6 6 6 6 6 6 6 6 6 6 5 5 5 5 6 7 7 7 6 5 5 5 6 6 6 6 6 6 7 7 7 7 7 7
6 7 7 6 6 6 6 6 6 6 6 6 6 6 6 5 5 5 5 5 5 6 6 7 7 7 6 5 5 5 6 6 6 6 5 6 6 6 6 6 7 7
6 6 7 6 6 6 6 6 6 6 5 5 5 5 5 5 4 4 4 4 5 5 6 6 6 6 5 5 5 5 5 6 6 5 5 5 5 5 5 5 6 6
6 6 6 6 6 6 6 6 6 5 5 5 4 4 4 4 4 4 4 4 5 5 5 5 5 5 4 4 4 4 4 5 5 5 5 5 4 4 5 5 5 5
Height
797 798 799 800 801 802 803 804 806 807 808 809 810 811 813 815 817 819 821 823 826 827 828 829 831 833 835 837 839 840 841 842 844 845 845 846 847 848 850 851 853 854
793 795 796 797 797 799 800 801 802 803 804 806 807 809 811 813 815 817 818 820 822 824 825 826 828 830 832 834 836 837 838 840 841 842 843 844 845 846 847 849 851 852
789 790 791 792 793 795 796 798 800 801 802 804 805 807 809 811 813 814 815 817 818 820 822 824 826 828 830 832 834 835 836 837 839 840 841 842 842 844 846 848 849 851
785 786 787 788 789 792 794 796 797 799 800 802 803 804 806 808 810 812 813 815 816 817 819 821 823 825 827 830 831 833 834 835 837 838 839 840 841 842 844 846 847 849
782 784 785 786 788 790 792 793 794 795 797 799 800 802 804 806 808 810 812 813 814 815 816 819 821 823 825 827 829 831 832 833 834 835 837 838 839 840 842 844 845 847
780 782 784 785 787 788 789 790 791 792 794 796 798 800 802 804 806 807 809 810 812 813 814 816 819 821 823 825 827 829 830 831 832 833 835 836 837 839 841 843 844 846
778 779 781 783 784 785 786 787 789 790 791 793 795 797 799 801 803 805 806 807 809 810 812 814 816 818 821 822 825 827 828 829 830 831 834 835 836 838 840 841 843 844
776 777 779 780 781 783 784 785 786 788 789 791 793 794 796 798 800 802 803 805 806 807 809 812 814 816 818 819 821 824 826 827 829 830 832 834 834 836 838 840 841 843
774 775 777 778 779 780 782 783 785 786 788 789 790 792 794 796 798 799 801 802 803 805 806 809 811 813 815 815 817 820 823 825 827 828 830 832 833 834 836 838 839 841
771 773 775 776 777 779 780 782 784 785 786 788 789 791 792 794 796 797 798 799 800 802 803 806 808 809 812 814 815 816 819 822 824 826 828 830 831 832 834 835 837 839
768 770 772 774 776 777 779 781 783 784 785 786 787 789 790 792 793 794 795 796 797 799 800 802 804 806 808 810 812 813 816 819 820 823 825 828 829 831 832 834 835 837
767 769 771 772 774 776 778 779 781 782 783 784 785 786 788 789 790 791 792 793 795 796 798 799 801 803 804 806 808 810 813 816 818 820 822 825 828 829 831 833 834 836
764 766 768 770 772 773 775 777 778 780 781 782 783 784 786 787 788 789 790 791 792 793 794 796 798 800 802 804 805 807 810 813 815 817 820 823 825 828 829 831 833 834
763 764 765 767 769 770 772 773 775 777 778 780 782 782 784 785 786 787 787 788 789 790 791 793 795 798 800 801 802 804 807 809 811 813 816 820 823 826 828 829 831 833
761 763 764 765 766 767 769 770 772 774 775 777 779 780 781 782 783 784 785 786 787 789 789 790 792 794 796 798 800 802 804 806 809 811 813 817 820 823 825 827 829 831
761 762 763 764 764 766 767 768 769 771 772 774 776 777 779 780 781 782 783 784 785 787 788 789 790 792 794 796 797 799 801 804 806 809 811 814 817 819 822 825 826 828
760 761 762 763 764 765 766 767 768 769 770 772 773 775 776 778 779 780 782 784 785 786 787 787 788 790 792 795 797 799 800 801 803 806 809 812 814 816 819 821 824 826
758 759 760 761 762 764 765 766 768 769 770 771 772 773 775 776 778 779 781 783 784 785 786 787 788 789 790 792 794 797 799 800 801 803 806 809 812 814 816 818 821 823
756 757 758 759 760 762 763 764 766 767 768 769 770 772 773 774 776 777 779 781 783 784 785 786 787 788 789 790 792 795 797 799 800 801 803 807 809 812 814 816 818 821
754 755 756 757 758 759 760 761 763 764 765 767 768 769 771 772 774 775 777 779 780 782 784 785 786 788 789 790 792 794 796 798 800 801 802 805 807 810 812 814 816 818
752 753 754 755 756 758 759 760 761 762 763 764 765 767 768 770 772 773 775 777 778 780 782 784 785 787 788 790 792 794 796 798 799 800 802 804 806 808 810 812 815 817
750 752 754 755 756 758 758 760 761 761 762 763 764 766 767 769 770 772 774 776 777 779 781 782 784 786 788 789 792 794 796 797 799 800 801 802 804 806 809 811 813 815
750 752 753 755 756 758 759 760 761 761 762 763 764 765 766 768 769 771 773 775 777 778 780 782 784 785 787 789 791 793 794 795 797 798 799 800 802 804 807 808 811 813
749 751 752 754 755 756 758 759 760 761 761 762 763 764 765 767 768 770 772 774 776 777 779 781 782 784 785 787 789 791 791 792 794 796 797 799 801 802 804 807 809 811
747 749 751 753 754 755 756 757 758 759 760 761 762 763 764 766 767 769 771 773 775 777 778 780 781 783 784 786 788 789 790 790 792 793 795 797 798 800 802 805 807 808
746 748 750 752 753 755 755 756 757 758 759 760 761 762 764 765 767 769 770 772 774 776 777 778 780 781 783 785 786 788 789 790 790 791 792 794 795 798 800 802 804 805
Wind_Speed
37 37 36 36 36 35 35 35 35 36 37 37 38 39 40 39 38 38 37 36 32 30 28 27 26 25 26 28 29 27 26 25 23 20 20 22 22 24 25 24 24 22
37 37 36 36 36 35 35 35 35 36 37 38 37 38 39 38 38 38 38 36 34 31 29 28 28 28 27 29 29 27 25 24 22 20 22 24 24 25 26 25 25 23
37 37 37 37 37 36 35 35 34 34 35 36 36 36 37 38 39 38 38 37 35 33 31 31 31 30 29 29 28 26 25 24 22 21 23 25 25 25 26 26 25 22
37 38 38 38 37 35 34 33 33 34 34 34 34 34 35 36 37 38 38 37 36 34 33 33 33 32 31 31 29 26 25 24 23 23 25 26 26 27 27 26 25 23
35 36 36 36 35 33 32 32 33 33 34 34 34 33 34 35 36 37 37 38 36 36 35 35 34 33 32 32 29 26 25 24 24 25 26 27 26 27 28 26 25 23
31 32 33 33 32 31 31 32 32 32 33 33 32 32 33 34 35 36 38 38 37 36 36 35 34 33 32 31 28 26 24 24 25 26 27 27 27 28 27 26 25 23
28 29 30 30 30 31 31 31 31 32 32 31 31 32 32 33 34 36 38 39 37 37 36 36 35 34 32 30 27 25 24 24 25 26 27 28 29 28 27 26 25 23
24 24 26 27 28 29 30 29 29 30 31 31 30 31 31 32 33 36 38 38 37 37 37 36 35 35 34 31 29 26 24 24 25 27 29 30 30 30 28 27 25 23
21 21 22 24 25 27 27 27 27 28 29 30 30 31 31 32 32 35 37 37 37 37 37 36 35 35 34 32 30 27 26 26 27 29 31 32 31 31 29 27 25 23
22 23 23 24 25 26 26 25 25 26 27 28 29 30 31 31 32 34 37 37 37 37 37 37 37 36 34 31 29 28 27 28 29 31 33 32 31 31 30 28 26 24
23 23 24 25 26 27 27 26 26 26 27 28 30 31 31 31 31 33 36 37 38 38 38 38 39 37 35 32 30 27 27 30 32 32 33 32 31 31 29 27 26 24
21 21 22 23 24 25 26 26 26 26 26 27 30 31 31 31 32 34 35 37 37 38 38 38 39 38 36 34 31 29 29 31 33 34 33 32 31 30 28 26 25 23
19 21 21 21 22 23 24 25 26 27 26 26 27 29 30 31 32 34 35 36 38 38 38 38 38 37 35 33 31 30 31 33 34 34 33 32 31 29 27 25 24 23
17 19 21 21 21 21 22 24 25 26 27 27 28 28 30 31 32 33 34 35 37 38 39 39 38 37 35 32 30 31 33 35 36 35 34 33 31 29 27 26 24 23
15 16 17 19 20 20 20 21 22 22 23 24 25 27 28 30 31 32 33 34 35 36 37 38 38 38 36 33 32 33 35 36 37 36 35 34 32 30 28 27 25 24
12 12 13 15 17 18 18 18 19 20 21 22 23 25 27 28 29 29 31 33 34 35 36 38 38 37 35 33 32 34 36 38 37 36 35 34 33 32 30 28 26 25
10 10 11 12 13 15 16 16 17 17 18 20 22 23 24 25 26 27 28 31 33 35 37 37 38 36 34 32 32 34 37 40 39 37 36 35 34 33 32 30 29 27
11 11 11 12 13 14 15 16 17 17 17 18 19 20 22 22 23 25 26 29 31 33 35 36 37 36 34 32 33 35 38 40 39 38 37 36 34 33 32 31 30 29
11 11 11 12 13 14 15 17 17 18 19 19 19 20 20 21 22 23 25 28 31 32 33 34 35 34 33 32 33 36 38 40 39 38 38 36 35 34 33 32 31 30
12 12 12 12 13 14 15 16 17 18 19 19 20 20 21 22 22 23 25 28 31 32 32 32 32 32 31 31 33 36 38 39 38 37 37 36 35 34 33 32 31 29
13 13 13 13 13 13 14 15 15 16 17 18 18 19 20 21 22 24 25 27 29 31 30 30 30 30 29 31 33 36 37 37 37 36 36 35 35 34 32 31 30 29
14 13 13 12 13 13 13 14 14 15 16 16 17 17 18 20 21 23 24 26 28 29 29 29 28 27 28 31 34 36 36 35 35 35 35 35 34 33 32 31 30 29
14 13 12 12 12 12 13 13 13 14 15 15 16 16 17 19 20 22 23 25 27 28 27 27 27 26 28 31 35 36 36 36 35 34 34 34 34 33 32 32 30 29
13 13 13 13 13 13 13 13 13 14 15 15 15 16 17 18 19 21 22 24 26 27 26 26 26 26 28 32 36 37 37 37 36 35 34 33 33 33 32 32 30 29
13 14 13 13 13 13 13 13 14 14 14 14 15 15 16 18 19 20 22 23 24 25 25 25 26 26 29 33 36 37 38 38 37 35 34 33 33 33 32 31 31 30
14 14 13 13 13 12 12 12 13 14 15 15 15 15 16 17 18 19 20 20 21 22 23 25 26 26 30 34 36 36 37 37 36 36 36 35 34 33 32 32 32 32
Wind_Direction
218 217 216 216 215 214 212 212 212 211 210 211 211 210 208 206 206 206 208 211 213 214 215 218 216 215 217 214 208 205 207 210 217 223 220 219 222 214 204 200 196 193
219 219 218 217 216 216 215 213 213 213 212 212 212 211 209 207 207 208 210 212 213 212 214 216 212 209 208 206 203 205 208 215 221 222 219 219 217 209 201 197 195 193
220 220 219 218 218 217 216 215 215 215 214 212 213 212 210 210 211 212 213 213 212 211 212 213 210 207 206 203 203 208 214 220 224 224 220 216 210 201 194 193 192 190
221 221 220 220 220 218 217 216 217 217 215 214 213 214 214 214 215 215 213 211 211 211 210 209 209 207 206 205 206 211 216 221 225 224 216 207 201 194 189 189 188 186
224 223 223 222 220 219 218 217 218 217 215 215 216 216 217 218 218 217 213 210 210 210 208 207 207 207 206 207 210 213 214 217 220 217 208 201 196 192 187 187 186 185
225 224 223 223 221 219 219 219 219 218 216 216 217 217 219 219 219 218 215 211 209 208 206 205 204 204 206 208 212 215 216 219 217 210 204 198 191 189 187 187 187 185
224 223 222 222 221 219 220 221 221 220 218 216 216 217 218 219 220 219 216 213 209 206 205 205 204 204 206 209 212 215 217 219 214 205 200 194 188 186 186 187 187 185
221 220 220 221 221 220 221 223 223 221 219 218 217 218 220 221 221 219 216 212 208 206 205 205 206 206 207 209 211 214 215 214 209 201 196 190 186 186 185 186 187 185
218 219 220 221 221 221 222 223 223 221 220 220 220 221 222 223 223 220 216 211 207 205 205 205 206 207 206 207 208 211 212 209 205 200 195 191 189 188 186 186 186 184
224 226 226 226 225 224 225 225 226 225 223 224 224 223 223 223 223 222 218 212 207 204 204 205 206 205 205 206 207 209 212 208 202 199 196 194 193 190 188 187 187 185
231 233 233 233 232 231 231 232 232 231 229 228 227 224 222 222 222 221 217 213 209 206 206 207 206 205 204 205 206 209 212 208 201 198 197 197 196 194 192 190 189 187
231 231 231 232 232 232 232 231 231 231 229 227 224 221 221 223 224 222 218 214 211 209 208 208 205 203 204 204 204 206 208 205 200 197 197 197 196 195 194 193 191 188
226 228 229 230 232 232 232 232 232 234 234 232 229 225 225 225 224 222 220 217 214 212 211 209 204 202 204 203 204 205 204 200 197 195 195 195 196 195 194 193 191 189
221 223 225 228 231 231 230 230 231 232 233 233 232 228 227 227 226 225 221 217 213 212 211 208 204 203 204 203 205 205 202 198 195 193 193 193 193 194 193 193 191 189
229 227 224 225 227 228 228 229 229 230 231 231 230 228 227 228 228 226 222 216 211 209 208 206 204 204 205 205 206 204 200 196 194 193 192 191 191 191 192 192 191 191
239 239 235 229 227 228 228 228 228 229 230 230 230 228 228 227 226 224 221 216 212 208 206 204 204 204 205 207 209 206 199 195 193 192 192 192 191 189 189 191 192 193
231 232 233 231 228 227 228 229 229 229 230 229 228 226 226 226 225 223 219 215 211 208 205 205 205 205 207 209 210 207 201 195 192 192 193 194 193 191 190 191 192 194
223 224 224 225 224 223 223 226 229 231 232 231 229 228 227 226 225 223 219 215 211 208 206 206 205 206 208 210 209 207 202 197 194 193 193 193 194 194 193 193 193 195
219 220 221 222 222 221 220 221 222 224 226 228 229 229 228 226 225 224 220 216 212 210 209 207 206 206 208 209 208 205 201 199 196 195 194 194 195 196 196 196 196 195
216 218 220 221 221 219 220 220 220 221 221 223 225 225 224 224 223 222 220 217 215 213 211 209 209 210 210 209 207 203 200 200 199 197 196 197 197 199 199 199 199 198
214 216 217 218 218 218 218 219 220 220 220 221 222 223 223 223 221 220 218 217 215 213 211 211 213 213 211 208 204 200 199 199 199 198 197 198 199 200 202 203 202 201
214 215 215 216 217 218 219 221 221 221 220 220 221 221 221 221 220 219 218 215 213 212 211 213 215 214 210 206 202 200 199 199 199 198 198 198 199 201 202 204 205 204
214 216 216 217 218 220 222 224 225 224 222 219 218 217 218 219 219 219 218 215 213 212 212 214 217 216 211 205 202 201 200 200 200 199 198 198 200 201 203 205 206 206
214 219 220 219 220 222 225 228 228 226 223 219 218 217 218 219 218 217 216 214 213 214 215 218 221 219 213 206 203 203 203 202 201 199 198 198 200 202 204 205 206 208
212 219 223 224 225 225 226 229 228 224 220 217 217 218 218 217 214 213 213 213 214 216 218 221 224 221 214 208 205 205 205 203 201 198 197 198 199 201 202 204 206 209
211 216 221 226 231 231 229 229 226 222 218 213 211 212 212 212 212 212 214 216 218 220 222 224 225 222 216 210 205 205 206 205 203 201 200 200 200 201 202 203 206 210